the time You need

,

KS Athlete ()

Nazionalitá:   --

Sesso:   --

Pettorale:   --

Categoria:   --

Società:   --

POS. ASSOLUTA

°

Gara

Carnia Classic

Percorso

109.0 Km - CORTO

Atleti arrivati

157

DETTAGLIO PRESTAZIONE

POSIZIONE ASSOLUTA °
TEMPO TOTALE
MEDIA Km/h
CATEGORIA
POSIZIONE CATEGORIA °

Intermedi

PRESTAZIONE A CONFRONTO
ASSOLUTO

NOME Fortunato Ferrara
° POSIZIONE ASSOLUTA
TEMPO ASSOLUTO 03:12:47.10
Km/h MEDIA PRIMO ASSOLUTO 33,92 Km/h

PRESTAZIONE A CONFRONTO
CATEGORIA

NOME Fortunato Ferrara
° POSIZIONE CATEGORIA
TEMPO PRIMO DI CATEGORIA 03:12:47.10
Km/h MEDIA PRIMO CATEGORIA 33,92 Km/h


 
Grafico Edizioni Precedenti
Risulta una sola edizione, grafico non disponibile.
 
Pos Anno Cat PosCat Sex PosSex Tempo Media RealTime
 

 
Team
Pos Atleta Cat PosCat Tempo Media
FERRARA FORTUNATO JUN 1 03:12:47.10 33,92
KOMAC ANDREJ JUN 2 03:22:38.70 32,28
SGOBINO ANDREA SEN 1 03:22:59.50 32,22
DOLENC ANDREJ SEN 2 03:22:59.90 32,22
VIDONI ROBERTO JUN 3 03:24:21.90 32,00
PERIN CARLO JUN 4 03:24:24.40 32,00
CABBAI VINICIO VET 1 03:24:24.50 32,00
LORENZON GIANNI VET 2 03:24:29.95 31,98
DESSONI MARCO CAD 1 03:24:30.00 31,98
10° BITUSSI FEDERICO CAD 2 03:24:55.00 31,92
11° BOFFI FRANCO GEN 1 03:27:32.90 31,51
12° DE CECCO GIORGIO CAD 3 03:29:43.20 31,18
13° KAVS GREGOR JUN 5 03:31:27.40 30,93
14° FRANCO MICHELE SEN 3 03:34:18.40 30,52
15° FACHIN DARIO SEN 4 03:34:18.60 30,52
16° FORGIARINI ANDREA JUN 6 03:35:47.30 30,31
17° TONON MANUELE JUN 7 03:36:40.10 30,18
18° CANTARUTTI MARCO JUN 8 03:36:43.10 30,18
19° CASANOVA DAVID CAD 4 03:36:47.50 30,17
20° ALVERA ALDO SEN 5 03:36:48.10 30,17
21° SANTELLA CRESCENZIO JUN 9 03:38:20.70 29,95
22° DEIURI STEFANO JUN 10 03:41:46.60 29,49
23° RIZZI PAOLO SEN 6 03:43:34.70 29,25
24° SOLARI ANDREA SEN 7 03:43:35.00 29,25
25° COPETTI MARINO VET 3 03:43:35.40 29,25
26° BERLASSO STEFANO JUN 11 03:43:35.70 29,25
27° GONANO MARCO SEN 8 03:45:43.90 28,97
28° COLLAVINO MARCO SEN 9 03:45:52.20 28,96
29° LEONARDUZZI MARTINO SEN 10 03:45:52.80 28,96
30° PUISSA MARCO CAD 5 03:45:52.90 28,96
31° SINICCO MAURO SEN 11 03:45:53.60 28,95
32° ZULIANI FABIO VET 4 03:45:55.20 28,95
33° CROSILLA FABIANO VET 5 03:45:58.50 28,94
34° FORGIARINI NICOLA CAD 6 03:48:25.80 28,63
35° PITTON PIERGIORGIO VET 6 03:48:27.10 28,63
36° DELL“OSTE ANDREA JUN 12 03:48:27.35 28,63
37° PAULOTTO MAURO VET 7 03:48:29.70 28,62
38° VARISCO FILIPPO SEN 12 03:48:31.70 28,62
39° PIUSSI ALESSANDRO VET 8 03:48:35.00 28,61
40° STEFANUTTI ROMEO GEN 2 03:51:27.20 28,26
41° BECCARI PAOLO CAD 7 03:51:27.70 28,26
42° BAITA MARCO VET 9 03:51:27.80 28,26
43° ZANDONELLA SANDRO GEN 3 03:51:28.00 28,25
44° DE MARCHI FLAVIO VET 10 03:51:28.60 28,25
45° SGRAZZUTTI PAOLO VET 11 03:53:15.50 28,04
46° MARTINA RAUL SEN 13 03:53:17.30 28,03
47° ZORZIN CLAUDIO GEN 4 03:53:17.60 28,03
48° BOLZAN VIVIANO SEN 14 03:53:19.40 28,03
49° FAPRANZI TIZIANO CAD 8 03:55:16.00 27,80
50° MAZZOLINI MANUEL JUN 13 03:56:33.00 27,65
51° CARTA GIOVANNI VET 12 03:56:36.50 27,64
52° TEDESCHI LUCA CAD 9 03:59:17.00 27,33
53° CASSIN MARCELLO VET 13 03:59:50.30 27,27
54° ZOZ MAURIZIO VET 14 03:59:51.50 27,27
55° VICARIO TRISTANO VET 15 04:00:26.00 27,20
56° FURLAN ANDREA SEN 15 04:00:26.80 27,20
57° CUM LUCIANO VET 16 04:00:28.20 27,20
58° FONDA FABIO VET 17 04:00:31.70 27,19
59° MONTESANO VINCENZO VET 18 04:00:33.20 27,19
60° DE CRIGNIS MARIO SEN 16 04:00:52.80 27,15
61° SERAFINI FRANCO SGEN 1 04:03:12.30 26,89
62° VITTOR ANTONIO VET 19 04:03:37.70 26,85
63° CASTELLAN STEFANO VET 20 04:03:37.90 26,85
64° SCIORTINO DANILO SEN 17 04:03:42.10 26,84
65° PELLIZZER ANDREA SEN 18 04:03:42.40 26,84
66° TREU LUCA SEN 19 04:03:42.70 26,84
67° VENDRAME CLAUDIO VET 21 04:03:44.20 26,83
68° IACUMIN ULLA DONA 1 04:03:44.80 26,83
69° GRIDEL DANIELE VET 22 04:03:53.30 26,82
70° COPETTI FULVIO SEN 20 04:03:54.20 26,81
71° CELLA MARIO SEN 21 04:03:54.30 26,81
72° NOGAROTTO ADELCHI VET 23 04:06:30.70 26,53
73° COURTNADGE PETER SEN 22 04:06:40.30 26,51
74° COMELLI MASSIMO SEN 23 04:06:44.60 26,51
75° GASPARI ALESSANDRO SEN 24 04:07:22.40 26,44
76° AMMATURO SIMONE JUN 14 04:07:22.70 26,44
77° BANELLI DANIELE JUN 15 04:08:46.60 26,29
78° ANTONUTTI ANDREA VET 24 04:08:48.20 26,29
79° BARONI ROBERTO GEN 5 04:08:50.00 26,28
80° CONSTANTINI GIULIO SGEN 2 04:08:51.00 26,28
81° BALESTRO ROBERTO VET 25 04:13:10.90 25,83
82° PASQUALIN RUDI GEN 6 04:13:49.00 25,77
83° CHIARCOSSO SANTE GEN 7 04:13:51.90 25,76
84° GRION ALESSANDRO VET 26 04:13:54.30 25,76
85° ROSSI DIEGO SEN 25 04:13:56.20 25,75
86° FABRO MAURO VET 27 04:14:45.30 25,67
87° BEVILACQUA PAOLO VET 28 04:15:52.70 25,56
88° LESCHIUTTA LUCIO VET 29 04:16:12.20 25,53
89° GRESSANI CLAUDIO SEN 26 04:16:13.10 25,53
90° BOSCAROL FRANCO SGEN 3 04:16:14.00 25,52
91° SPANGHERO LUCIANO GEN 8 04:16:15.00 25,52
92° MONTAGNER MARIO GIOVANNI VET 30 04:16:23.60 25,51
93° PACI ANGELO GEN 9 04:16:59.00 25,45
94° TUL ALES CAD 10 04:19:05.30 25,24
95° FACHIN ADRIANO SEN 27 04:19:21.50 25,22
96° VENIER ROMINA DONA 2 04:20:16.50 25,13
97° MINETTO STEFANO VET 31 04:20:17.80 25,13
98° DA PRA STEFANO VET 32 04:20:51.30 25,07
99° CUMIN FEDERICO SEN 28 04:24:25.70 24,73
100° PALESE ANDREA SEN 29 04:24:45.60 24,70
 

ELENCO GARE VISUALIZZAZIONE ESTESA

Data
Evento
Posizione
Punti
Km
Sport